[[{"header":{"parameterUnit":"m.s-1","parameterCategory":2,"la1":30.2992,"la2":30.254,"lo1":-89.0895,"lo2":-89.0443,"dy":0.0025,"dx":0.0025,"nx":19,"ny":19,"refTime":"2026-03-11T21:00:00:Z","depth":"0","parameterNumber":2,"parameterNumberName":"U-component_of_CURRENTS"},"data":[0,0,0,-0.1337,-0.1337,-0.1347,-0.1347,-0.1352,-0.1352,0,0,0,0,0,0,0,0,0,0,0,-0.1329,-0.133,-0.1337,-0.1337,-0.1347,-0.1347,-0.1352,-0.1352,0,0,0,0,0,0,0,0,0,0,0,-0.1329,-0.133,-0.133,-0.1337,-0.1347,-0.1347,-0.1352,-0.1346,0,0,0,0,0,0,0,0,0,0,-0.1336,-0.1329,-0.133,-0.133,-0.1337,-0.1347,-0.1347,-0.1345,-0.1346,-0.1346,0,-0.1348,0,-0.1354,-0.1353,-0.1353,0,0,0,-0.1333,-0.1329,-0.1336,-0.133,-0.1337,-0.1347,-0.1342,-0.1346,-0.1346,-0.1347,-0.1349,-0.1349,-0.1354,-0.1353,-0.1353,-0.1357,-0.1357,0,0,-0.1333,-0.1327,-0.1335,-0.1336,-0.1341,-0.1341,-0.1342,-0.1346,-0.1345,-0.1349,-0.1349,-0.1354,-0.1353,-0.1353,-0.1357,-0.1357,0,0,0,-0.1334,-0.1327,-0.1334,-0.1336,-0.134,-0.1342,-0.1342,-0.1344,-0.1348,-0.1349,-0.1354,-0.1353,-0.1353,-0.1357,-0.1357,-0.1352,0,0,0,-0.1333,-0.1328,-0.1333,-0.1329,-0.134,-0.1343,-0.134,-0.1347,-0.1348,-0.1354,-0.1353,-0.1353,-0.1357,-0.1357,-0.1352,-0.1337,0,0,0,-0.1329,-0.1327,-0.133,-0.1329,-0.1337,-0.1343,-0.1347,-0.1348,-0.1351,-0.1353,-0.1353,-0.1357,-0.1357,-0.1352,-0.1338,-0.132,0,0,0,-0.1321,-0.1326,-0.1329,-0.1335,-0.1336,-0.1349,-0.1347,-0.1353,-0.1354,-0.1353,-0.1357,-0.1357,-0.1352,-0.1338,-0.1321,-0.1256,-0.1248,0,0,-0.1324,-0.1326,-0.133,-0.1334,-0.1344,-0.1347,-0.1352,-0.1353,-0.1353,-0.1354,-0.1354,-0.1352,-0.1338,-0.1321,-0.1255,-0.1246,0,0,0,-0.1329,-0.1328,-0.1333,-0.1338,-0.1351,-0.1351,-0.1357,-0.1356,-0.1352,-0.1355,-0.1353,-0.1344,-0.1333,-0.1296,-0.1289,-0.1301,-0.1357,-0.1357,-0.1357,-0.1316,-0.1325,-0.1326,-0.1335,-0.1344,-0.1352,-0.1349,-0.1347,-0.1355,-0.1352,-0.1341,-0.1324,-0.1285,-0.1279,-0.1293,-0.1349,-0.1349,-0.1349,-0.1349,-0.1304,-0.1296,-0.131,-0.1313,-0.1322,-0.1325,-0.1334,-0.1336,-0.1325,-0.1336,-0.1327,-0.1294,-0.1272,-0.1289,-0.1349,-0.1349,-0.1349,-0.1349,-0.1349,-0.128,-0.1275,-0.1281,-0.128,-0.1282,-0.1297,-0.1283,-0.1299,-0.1307,-0.13,-0.1253,-0.1252,-0.1264,-0.1296,-0.1296,-0.1296,-0.1296,-0.1296,-0.1295,-0.1243,-0.125,-0.1237,-0.1243,-0.1236,-0.1236,-0.125,-0.1243,-0.1231,-0.123,-0.1229,-0.1254,-0.1308,-0.1307,-0.1293,-0.1294,-0.1294,-0.1294,-0.1294,-0.1191,-0.1201,-0.1175,-0.1166,-0.1151,-0.1119,-0.1159,-0.1133,-0.1138,-0.1115,-0.1157,-0.1191,-0.1181,-0.1185,-0.1181,-0.1136,-0.1136,-0.1136,-0.1136,-0.115,-0.1156,-0.1106,-0.1074,-0.1051,-0.1054,-0.1002,-0.1015,-0.1045,-0.1056,-0.1101,-0.1108,-0.1114,-0.1102,-0.1108,-0.1104,-0.104,-0.104,-0.104,-0.1105,-0.1098,-0.1041,-0.1018,-0.099,-0.0967,-0.0915,-0.0949,-0.1008,-0.1041,-0.1132,-0.1136,-0.1155,-0.1163,-0.1152,-0.1161,-0.1156,0,0]},{"header":{"parameterUnit":"m.s-1","parameterCategory":2,"la1":30.2992,"la2":30.254,"lo1":-89.0895,"lo2":-89.0443,"dy":0.0025,"dx":0.0025,"nx":19,"ny":19,"refTime":"2026-03-11T21:00:00:Z","depth":"0","parameterNumber":3,"parameterNumberName":"V-component_of_CURRENTS"},"data":[0,0,0,-0.056,-0.0559,-0.0521,-0.052,-0.0449,-0.0449,0,0,0,0,0,0,0,0,0,0,0,-0.0572,-0.0572,-0.056,-0.0559,-0.0521,-0.052,-0.0449,-0.0449,0,0,0,0,0,0,0,0,0,0,0,-0.0572,-0.0572,-0.0572,-0.0559,-0.0521,-0.052,-0.045,-0.0482,0,0,0,0,0,0,0,0,0,0,-0.0521,-0.0538,-0.0572,-0.0572,-0.0559,-0.0521,-0.052,-0.0483,-0.048,-0.0464,0,-0.0464,0,-0.0459,-0.0444,-0.0444,0,0,0,-0.0549,-0.0542,-0.0534,-0.0572,-0.0559,-0.0521,-0.0535,-0.0481,-0.0477,-0.0459,-0.0463,-0.046,-0.0458,-0.0444,-0.0444,-0.0402,-0.0402,0,0,-0.0551,-0.0559,-0.0537,-0.0531,-0.0556,-0.0537,-0.0534,-0.0479,-0.0476,-0.0463,-0.0459,-0.0457,-0.0444,-0.0443,-0.0402,-0.0402,0,0,0,-0.0564,-0.0561,-0.0554,-0.0534,-0.0531,-0.0536,-0.0533,-0.0478,-0.0477,-0.0458,-0.0456,-0.0443,-0.0442,-0.0402,-0.0402,-0.044,0,0,0,-0.0565,-0.0569,-0.0556,-0.0559,-0.0533,-0.0507,-0.0533,-0.048,-0.0474,-0.0456,-0.0443,-0.0442,-0.0402,-0.0402,-0.0439,-0.0457,0,0,0,-0.0572,-0.057,-0.0568,-0.056,-0.0548,-0.0508,-0.0503,-0.0479,-0.0473,-0.0444,-0.0442,-0.0402,-0.0402,-0.0438,-0.0455,-0.0449,0,0,0,-0.0577,-0.0585,-0.0569,-0.0574,-0.0549,-0.0536,-0.0503,-0.0486,-0.0465,-0.0443,-0.0402,-0.0402,-0.0438,-0.0454,-0.0449,-0.0451,-0.0456,0,0,-0.0592,-0.0586,-0.059,-0.0575,-0.0576,-0.054,-0.053,-0.0489,-0.0458,-0.0416,-0.0415,-0.044,-0.0455,-0.0449,-0.0454,-0.0458,0,0,0,-0.0598,-0.0601,-0.0598,-0.0593,-0.0577,-0.0559,-0.0519,-0.0496,-0.0459,-0.0448,-0.043,-0.0438,-0.0433,-0.0433,-0.0436,-0.0448,-0.0402,-0.0402,-0.0402,-0.0621,-0.0616,-0.0624,-0.0614,-0.0603,-0.0567,-0.0546,-0.0505,-0.0476,-0.0465,-0.0462,-0.0475,-0.0476,-0.0478,-0.049,-0.0453,-0.0453,-0.0453,-0.0453,-0.0647,-0.0655,-0.0644,-0.0651,-0.063,-0.0616,-0.0566,-0.0541,-0.0503,-0.0483,-0.0476,-0.0465,-0.0484,-0.0495,-0.0456,-0.0455,-0.0455,-0.0455,-0.0455,-0.0667,-0.0672,-0.0676,-0.0684,-0.0676,-0.0645,-0.0626,-0.0585,-0.0538,-0.0534,-0.0509,-0.0508,-0.0523,-0.0525,-0.0525,-0.0525,-0.0525,-0.0525,-0.0525,-0.0689,-0.0693,-0.0711,-0.0715,-0.0719,-0.0706,-0.0659,-0.0633,-0.0582,-0.0547,-0.0547,-0.0529,-0.0496,-0.0499,-0.0526,-0.0526,-0.0525,-0.0525,-0.0525,-0.0714,-0.0719,-0.0745,-0.0757,-0.0761,-0.0758,-0.0717,-0.066,-0.0622,-0.0597,-0.0568,-0.0544,-0.0526,-0.0523,-0.0526,-0.0558,-0.0558,-0.0558,-0.0558,-0.0733,-0.0737,-0.0768,-0.0785,-0.0793,-0.0778,-0.0767,-0.0719,-0.0639,-0.0608,-0.0589,-0.0584,-0.0582,-0.0567,-0.0563,-0.0566,-0.0607,-0.0607,-0.0607,-0.0749,-0.0757,-0.0778,-0.0794,-0.0804,-0.0797,-0.0801,-0.08,-0.0687,-0.0611,-0.0607,-0.0605,-0.0598,-0.0593,-0.0569,-0.0562,-0.0565,0,0]}],[{"header":{"parameterUnit":"m.s-1","parameterCategory":2,"la1":30.2992,"la2":30.254,"lo1":-89.0895,"lo2":-89.0443,"dy":0.0025,"dx":0.0025,"nx":19,"ny":19,"refTime":"2026-03-11T21:00:00:Z","depth":"2","parameterNumber":2,"parameterNumberName":"U-component_of_CURRENTS"},"data":[0,0,0,-0.1292,-0.1293,-0.1304,-0.1304,-0.131,-0.131,0,0,0,0,0,0,0,0,0,0,0,-0.1285,-0.1285,-0.1292,-0.1293,-0.1304,-0.1304,-0.131,-0.131,0,0,0,0,0,0,0,0,0,0,0,-0.1285,-0.1285,-0.1285,-0.1293,-0.1304,-0.1304,-0.131,-0.1302,0,0,0,0,0,0,0,0,0,0,-0.1292,-0.1285,-0.1285,-0.1285,-0.1293,-0.1304,-0.1304,-0.1302,-0.1303,-0.1303,0,-0.1305,0,-0.1311,-0.131,-0.131,0,0,0,-0.1289,-0.1285,-0.1292,-0.1285,-0.1293,-0.1304,-0.1298,-0.1303,-0.1303,-0.1304,-0.1305,-0.1306,-0.1311,-0.131,-0.131,-0.1314,-0.1314,0,0,-0.1288,-0.1283,-0.1291,-0.1292,-0.1297,-0.1298,-0.1299,-0.1303,-0.1302,-0.1305,-0.1306,-0.1311,-0.131,-0.131,-0.1314,-0.1314,0,0,0,-0.1289,-0.1283,-0.1289,-0.1292,-0.1296,-0.1298,-0.1299,-0.1302,-0.1305,-0.1306,-0.1311,-0.131,-0.131,-0.1314,-0.1314,-0.131,0,0,0,-0.1288,-0.1284,-0.1289,-0.1286,-0.1296,-0.13,-0.1297,-0.1304,-0.1305,-0.1311,-0.131,-0.1311,-0.1314,-0.1314,-0.131,-0.1296,0,0,0,-0.1284,-0.1283,-0.1285,-0.1286,-0.1293,-0.13,-0.1304,-0.1305,-0.1308,-0.131,-0.1311,-0.1314,-0.1314,-0.131,-0.1296,-0.128,0,0,0,-0.1277,-0.1281,-0.1285,-0.1291,-0.1293,-0.1305,-0.1304,-0.131,-0.1312,-0.131,-0.1314,-0.1314,-0.1311,-0.1297,-0.128,-0.1208,-0.1199,0,0,-0.128,-0.1281,-0.1286,-0.129,-0.13,-0.1303,-0.1309,-0.131,-0.1311,-0.1311,-0.1311,-0.131,-0.1296,-0.128,-0.1207,-0.1198,0,0,0,-0.1285,-0.1283,-0.1289,-0.1294,-0.1306,-0.1306,-0.1313,-0.1313,-0.1311,-0.1313,-0.1311,-0.1302,-0.1292,-0.1249,-0.1243,-0.1314,-0.1314,-0.1314,-0.1314,-0.1273,-0.1281,-0.1282,-0.1291,-0.1299,-0.1308,-0.1306,-0.1304,-0.1313,-0.131,-0.13,-0.1284,-0.124,-0.1234,-0.1308,-0.1308,-0.1308,-0.1308,-0.1308,-0.1261,-0.1253,-0.1267,-0.1269,-0.1279,-0.1282,-0.1291,-0.1294,-0.1284,-0.1296,-0.1286,-0.1249,-0.1226,-0.1308,-0.1308,-0.1308,-0.1308,-0.1308,-0.1308,-0.1237,-0.1232,-0.1239,-0.1238,-0.1241,-0.1256,-0.1243,-0.1259,-0.1268,-0.1261,-0.1209,-0.1208,-0.1271,-0.1258,-0.1258,-0.1258,-0.1257,-0.1257,-0.1257,-0.1202,-0.1209,-0.1196,-0.1202,-0.1195,-0.1196,-0.1211,-0.1205,-0.119,-0.1186,-0.1186,-0.1267,-0.1268,-0.1268,-0.1255,-0.1256,-0.1256,-0.1256,-0.1256,-0.1151,-0.1161,-0.1136,-0.1127,-0.1113,-0.107,-0.1118,-0.1089,-0.1096,-0.1071,-0.1141,-0.1144,-0.1133,-0.1138,-0.1134,-0.1087,-0.1087,-0.1087,-0.1087,-0.1111,-0.1117,-0.1068,-0.1036,-0.1013,-0.1003,-0.0921,-0.0888,-0.0923,-0.0923,-0.093,-0.0926,-0.0936,-0.0915,-0.0925,-0.0916,-0.0813,-0.0812,-0.0812,-0.1067,-0.106,-0.1004,-0.0982,-0.0953,-0.0905,-0.0789,-0.0697,-0.072,-0.0801,-0.0882,-0.1069,-0.1082,-0.1091,-0.1075,-0.1084,-0.1078,0,0]},{"header":{"parameterUnit":"m.s-1","parameterCategory":2,"la1":30.2992,"la2":30.254,"lo1":-89.0895,"lo2":-89.0443,"dy":0.0025,"dx":0.0025,"nx":19,"ny":19,"refTime":"2026-03-11T21:00:00:Z","depth":"2","parameterNumber":3,"parameterNumberName":"V-component_of_CURRENTS"},"data":[0,0,0,-0.0478,-0.0478,-0.0442,-0.0442,-0.0371,-0.037,0,0,0,0,0,0,0,0,0,0,0,-0.049,-0.049,-0.0478,-0.0478,-0.0442,-0.0442,-0.0371,-0.037,0,0,0,0,0,0,0,0,0,0,0,-0.049,-0.049,-0.049,-0.0478,-0.0442,-0.0442,-0.0371,-0.0402,0,0,0,0,0,0,0,0,0,0,-0.0439,-0.0457,-0.049,-0.049,-0.0478,-0.0442,-0.0442,-0.0404,-0.04,-0.0384,0,-0.0384,0,-0.038,-0.0366,-0.0366,0,0,0,-0.0468,-0.046,-0.0452,-0.049,-0.0478,-0.0442,-0.0455,-0.0402,-0.0398,-0.0379,-0.0383,-0.0381,-0.0379,-0.0366,-0.0365,-0.0324,-0.0324,0,0,-0.047,-0.0478,-0.0455,-0.045,-0.0476,-0.0457,-0.0454,-0.04,-0.0397,-0.0383,-0.0379,-0.0378,-0.0365,-0.0365,-0.0324,-0.0324,0,0,0,-0.0482,-0.048,-0.0473,-0.0453,-0.0451,-0.0456,-0.0453,-0.0399,-0.0398,-0.0379,-0.0377,-0.0365,-0.0364,-0.0324,-0.0324,-0.0364,0,0,0,-0.0483,-0.0488,-0.0474,-0.0478,-0.0452,-0.0428,-0.0454,-0.0402,-0.0395,-0.0377,-0.0365,-0.0363,-0.0324,-0.0324,-0.0363,-0.038,0,0,0,-0.049,-0.0488,-0.0487,-0.0479,-0.0468,-0.0429,-0.0424,-0.04,-0.0395,-0.0366,-0.0363,-0.0324,-0.0324,-0.0362,-0.0378,-0.0372,0,0,0,-0.0495,-0.0503,-0.0487,-0.0494,-0.0469,-0.0457,-0.0424,-0.0408,-0.0387,-0.0365,-0.0324,-0.0324,-0.0362,-0.0377,-0.0371,-0.0366,-0.037,0,0,-0.051,-0.0505,-0.0509,-0.0495,-0.0496,-0.0461,-0.0451,-0.0411,-0.0381,-0.0338,-0.0337,-0.0363,-0.0378,-0.0372,-0.037,-0.0374,0,0,0,-0.0518,-0.0521,-0.0518,-0.0514,-0.0498,-0.048,-0.0441,-0.0418,-0.0382,-0.037,-0.0353,-0.0361,-0.0356,-0.0351,-0.0354,-0.0324,-0.0324,-0.0324,-0.0324,-0.0543,-0.0537,-0.0545,-0.0535,-0.0524,-0.0489,-0.0469,-0.0428,-0.0399,-0.039,-0.0387,-0.04,-0.0396,-0.0397,-0.0378,-0.0378,-0.0378,-0.0379,-0.0379,-0.057,-0.0578,-0.0567,-0.0575,-0.0553,-0.054,-0.0489,-0.0466,-0.0428,-0.0408,-0.0401,-0.0385,-0.0403,-0.0382,-0.0381,-0.0381,-0.038,-0.038,-0.038,-0.0592,-0.0596,-0.06,-0.0609,-0.0602,-0.0571,-0.0551,-0.051,-0.0464,-0.046,-0.0429,-0.0428,-0.0421,-0.0451,-0.0451,-0.0451,-0.0451,-0.0451,-0.0451,-0.0615,-0.0618,-0.0638,-0.0642,-0.0646,-0.0633,-0.0586,-0.0559,-0.0505,-0.0468,-0.0467,-0.0424,-0.0422,-0.0424,-0.0452,-0.0452,-0.0452,-0.0452,-0.0452,-0.0642,-0.0647,-0.0673,-0.0685,-0.0688,-0.067,-0.064,-0.058,-0.0543,-0.0515,-0.046,-0.046,-0.0441,-0.0438,-0.044,-0.047,-0.047,-0.047,-0.047,-0.0661,-0.0665,-0.0697,-0.0714,-0.072,-0.0684,-0.0632,-0.0528,-0.0458,-0.0403,-0.0406,-0.0391,-0.0392,-0.0369,-0.0368,-0.0367,-0.0378,-0.0378,-0.0378,-0.0677,-0.0686,-0.0707,-0.0723,-0.073,-0.0688,-0.0603,-0.0439,-0.0331,-0.0371,-0.0359,-0.047,-0.0455,-0.0454,-0.0423,-0.042,-0.042,0,0]}],[{"header":{"parameterUnit":"m.s-1","parameterCategory":2,"la1":30.2992,"la2":30.254,"lo1":-89.0895,"lo2":-89.0443,"dy":0.0025,"dx":0.0025,"nx":19,"ny":19,"refTime":"2026-03-11T21:00:00:Z","depth":"4","parameterNumber":2,"parameterNumberName":"U-component_of_CURRENTS"},"data":[0,0,0,-0.0879,-0.088,-0.094,-0.094,-0.0987,-0.0988,0,0,0,0,0,0,0,0,0,0,0,-0.0862,-0.0862,-0.0879,-0.0881,-0.094,-0.094,-0.0987,-0.0988,0,0,0,0,0,0,0,0,0,0,0,-0.0862,-0.0862,-0.0863,-0.0881,-0.094,-0.0941,-0.0987,-0.095,0,0,0,0,0,0,0,0,0,0,-0.0896,-0.0887,-0.0862,-0.0863,-0.0881,-0.094,-0.0941,-0.0949,-0.0952,-0.0951,0,-0.0964,0,-0.0974,-0.099,-0.099,0,0,0,-0.0883,-0.0884,-0.0896,-0.0863,-0.0882,-0.094,-0.0914,-0.0951,-0.0955,-0.0956,-0.0965,-0.0967,-0.0975,-0.099,-0.099,-0.1023,-0.1023,0,0,-0.088,-0.0876,-0.0893,-0.0898,-0.0901,-0.0912,-0.0916,-0.0954,-0.0962,-0.0965,-0.0968,-0.0976,-0.099,-0.0991,-0.1023,-0.1023,0,0,0,-0.0869,-0.0874,-0.0886,-0.0896,-0.0908,-0.0914,-0.0918,-0.096,-0.0963,-0.0969,-0.0976,-0.0991,-0.0991,-0.1022,-0.1023,-0.1025,0,0,0,-0.0867,-0.0867,-0.0884,-0.0883,-0.0908,-0.094,-0.0924,-0.0961,-0.0965,-0.0976,-0.0991,-0.0991,-0.1022,-0.1023,-0.1025,-0.1012,0,0,0,-0.0858,-0.0866,-0.0874,-0.0883,-0.0907,-0.0939,-0.0945,-0.0962,-0.097,-0.099,-0.0991,-0.1022,-0.1022,-0.1024,-0.1012,-0.1001,0,0,0,-0.0852,-0.0863,-0.0874,-0.0891,-0.0906,-0.0937,-0.0945,-0.0976,-0.0995,-0.0991,-0.1022,-0.1023,-0.1024,-0.1012,-0.1001,-0.0885,0,0,0,-0.0858,-0.0864,-0.0872,-0.0883,-0.0907,-0.0929,-0.0956,-0.0986,-0.0996,-0.1008,-0.1009,-0.1025,-0.1012,-0.1001,-0.0901,0,0,0,0,-0.0869,-0.0873,-0.0884,-0.0902,-0.0928,-0.095,-0.0982,-0.0992,-0.1016,-0.1008,-0.1029,-0.1021,-0.1014,-0.0947,-0.1024,-0.1024,-0.1024,-0.1024,-0.1024,-0.0863,-0.0875,-0.0889,-0.0909,-0.0932,-0.0969,-0.0985,-0.1004,-0.102,-0.1031,-0.1027,-0.1023,-0.0954,-0.1038,-0.1038,-0.1038,-0.1038,-0.1038,-0.1038,-0.0854,-0.0852,-0.0883,-0.0901,-0.0931,-0.0958,-0.0989,-0.1005,-0.1016,-0.103,-0.1024,-0.0959,-0.1039,-0.1039,-0.1039,-0.1039,-0.1039,-0.1039,-0.1038,-0.0828,-0.0827,-0.0853,-0.0879,-0.091,-0.0948,-0.0952,-0.0988,-0.1008,-0.1009,-0.0934,-0.1017,-0.1011,-0.1011,-0.1011,-0.1011,-0.1011,-0.101,-0.101,-0.0783,-0.0807,-0.0817,-0.0852,-0.0868,-0.0892,-0.0932,-0.093,-0.0963,-0.0912,-0.1007,-0.1013,-0.1014,-0.101,-0.1009,-0.1009,-0.1009,-0.101,-0.101,-0.0728,-0.0753,-0.0754,-0.077,-0.0796,-0.0803,-0.0863,-0.0837,-0.0823,-0.0793,-0.0857,-0.0865,-0.0847,-0.0852,-0.0841,-0.079,-0.0789,-0.0787,0,-0.0687,-0.07,-0.0694,-0.0693,-0.0686,-0.0737,-0.0687,-0.0702,-0.0729,-0.0708,-0.0827,-0.0899,-0.0904,-0.0887,-0.0889,-0.0877,0,0,0,-0.0647,-0.0652,-0.0627,-0.0637,-0.0626,-0.062,-0.0666,-0.0637,-0.0736,-0.0684,-0.0749,-0.0759,-0.0912,-0.1004,-0.0997,-0.0998,-0.0989,0,0]},{"header":{"parameterUnit":"m.s-1","parameterCategory":2,"la1":30.2992,"la2":30.254,"lo1":-89.0895,"lo2":-89.0443,"dy":0.0025,"dx":0.0025,"nx":19,"ny":19,"refTime":"2026-03-11T21:00:00:Z","depth":"4","parameterNumber":3,"parameterNumberName":"V-component_of_CURRENTS"},"data":[0,0,0,-0.0164,-0.0164,-0.0157,-0.0157,-0.012,-0.012,0,0,0,0,0,0,0,0,0,0,0,-0.0167,-0.0167,-0.0164,-0.0164,-0.0157,-0.0157,-0.012,-0.012,0,0,0,0,0,0,0,0,0,0,0,-0.0167,-0.0167,-0.0167,-0.0164,-0.0157,-0.0157,-0.012,-0.0131,0,0,0,0,0,0,0,0,0,0,-0.014,-0.0152,-0.0167,-0.0167,-0.0164,-0.0157,-0.0157,-0.0132,-0.013,-0.0118,0,-0.0123,0,-0.0123,-0.0118,-0.0117,0,0,0,-0.0157,-0.0153,-0.015,-0.0167,-0.0164,-0.0157,-0.0158,-0.0131,-0.0129,-0.0116,-0.0123,-0.0121,-0.0122,-0.0117,-0.0117,-0.0107,-0.0107,0,0,-0.0157,-0.0164,-0.0152,-0.015,-0.017,-0.0159,-0.0158,-0.013,-0.0132,-0.0122,-0.0121,-0.0122,-0.0117,-0.0117,-0.0106,-0.0107,0,0,0,-0.0163,-0.0164,-0.0162,-0.0151,-0.0153,-0.0159,-0.0158,-0.0133,-0.0132,-0.012,-0.0121,-0.0117,-0.0116,-0.0106,-0.0106,-0.0144,0,0,0,-0.0163,-0.0168,-0.0163,-0.0166,-0.0154,-0.0148,-0.0161,-0.0134,-0.0131,-0.0122,-0.0117,-0.0116,-0.0106,-0.0106,-0.0143,-0.0156,0,0,0,-0.0166,-0.0168,-0.017,-0.0167,-0.0167,-0.0148,-0.0146,-0.0134,-0.0132,-0.0117,-0.0116,-0.0106,-0.0106,-0.0141,-0.0154,-0.0145,0,0,0,-0.0169,-0.0183,-0.017,-0.0186,-0.0167,-0.0174,-0.0146,-0.0148,-0.0139,-0.0117,-0.0106,-0.0106,-0.0141,-0.0153,-0.0144,-0.0127,0,0,0,-0.0188,-0.0185,-0.0195,-0.0184,-0.02,-0.0174,-0.0183,-0.0161,-0.0138,-0.0111,-0.0111,-0.0143,-0.0154,-0.0145,-0.0149,0,0,0,0,-0.0202,-0.021,-0.0212,-0.0219,-0.0216,-0.021,-0.0189,-0.0173,-0.0155,-0.0136,-0.014,-0.0146,-0.0139,-0.0126,-0.0108,-0.0108,-0.0108,-0.0108,-0.0108,-0.0229,-0.023,-0.0248,-0.0249,-0.0251,-0.0235,-0.0225,-0.0198,-0.0177,-0.0176,-0.0175,-0.0191,-0.018,-0.0173,-0.0173,-0.0173,-0.0173,-0.0174,-0.0174,-0.0258,-0.0268,-0.0272,-0.0292,-0.0285,-0.0288,-0.0255,-0.0239,-0.0214,-0.0201,-0.0192,-0.0165,-0.0177,-0.0177,-0.0176,-0.0176,-0.0175,-0.0175,-0.0175,-0.0272,-0.0278,-0.0295,-0.032,-0.0331,-0.032,-0.0309,-0.0283,-0.0247,-0.0245,-0.0209,-0.0206,-0.0204,-0.0237,-0.0237,-0.0237,-0.0237,-0.0237,-0.0237,-0.0276,-0.0293,-0.0319,-0.0345,-0.0361,-0.0365,-0.0339,-0.0315,-0.0279,-0.0244,-0.0251,-0.0212,-0.021,-0.0206,-0.0238,-0.0237,-0.0237,-0.0237,-0.0237,-0.0286,-0.0297,-0.0333,-0.0356,-0.0385,-0.0382,-0.0369,-0.031,-0.0281,-0.0245,-0.0231,-0.0232,-0.0209,-0.0207,-0.0203,-0.0234,-0.0234,-0.0234,0,-0.0288,-0.0298,-0.0338,-0.0367,-0.0383,-0.0384,-0.0343,-0.0311,-0.0262,-0.0257,-0.0277,-0.0264,-0.0263,-0.024,-0.0238,-0.0234,0,0,0,-0.0292,-0.0305,-0.0328,-0.036,-0.0376,-0.034,-0.0327,-0.0301,-0.0278,-0.024,-0.0231,-0.0232,-0.0251,-0.0239,-0.0205,-0.0202,-0.0194,0,0]}]]